Regional Weather Roundup
Issued by NWS

Home | Current Version | Previous Version | Text Only | Print | Product List | Glossary On
Versions: 1 2 3 4 5 6 7 8 9 10 11 12 13 14 15 16 17 18 19 20 21 22 23 24 25 26 27 28 29 30 31 32 33 34 35 36 37 38 39 40 41 42 43 44 45 46 47 48 49 50
000
ASUS46 KPQR 010210
RWROR

OREGON REGIONAL WEATHER ROUNDUP
NATIONAL WEATHER SERVICE PORTLAND OR
700 PM PDT MON AUG 31 2015

NOTE: "FAIR" INDICATES FEW OR NO CLOUDS BELOW 12,000 FEET WITH
NO SIGNIFICANT WEATHER AND/OR OBSTRUCTIONS TO VISIBILITY.

ORZ001>013-010300-
NORTHWEST OREGON


CITY           SKY/WX    TMP DP  RH WIND       PRES   REMARKS
ASTORIA        CLOUDY    64  59  83 S8        29.95F
NEWPORT        MOCLDY    63  59  88 S7        30.03F
PORTLAND       MOCLDY    72  53  51 W10       29.95F
VANCOUVER WA   CLOUDY    71  52  50 W9        29.95S
SCAPPOOSE      MOCLDY    70  52  52 SW8       29.94F
HILLSBORO      MOCLDY    69  52  54 W8        29.96S
AURORA         MOCLDY    69  52  54 W6        29.97F
MCMINNVILLE    MOCLDY    70  53  54 W6        29.97F
SALEM          CLOUDY    71  51  49 W12       29.96F
CORVALLIS      CLOUDY    70  54  56 NW14      29.99S
EUGENE         MOCLDY    74  53  48 NW8       29.96F
$$

ORZ021-028-010300-
SOUTHWEST OREGON


CITY           SKY/WX    TMP DP  RH WIND       PRES   REMARKS
NORTH BEND     PTCLDY    66  63  88 W6        30.02S
BROOKINGS      CLEAR     68  57  67 NW9G17    29.97S
ROSEBURG       CLEAR     77  52  41 NW9G17    29.94S
SEXTON SUMMIT  CLEAR     63  50  62 VRB3      30.03F
MEDFORD        CLEAR     84  43  23 NW8       29.89F
$$

ORZ014>016-041-010300-
COLUMBIA GORGE


CITY           SKY/WX    TMP DP  RH WIND       PRES   REMARKS
TROUTDALE      MOCLDY    72  53  51 VRB3      29.95S
THE DALLES     PTCLDY    71  51  49 NW16G31   29.89S
$$

ORZ029>031-041-044-049-050-061>064-502-503-505>511-010300-
EASTERN OREGON


CITY           SKY/WX    TMP DP  RH WIND       PRES   REMARKS
REDMOND        CLEAR     71  38  29 NW14      29.95R
BEND           CLEAR     72  36  26 N12       29.97R
PRINEVILLE     CLEAR     72  36  26 W14       29.95S
KLAMATH FALLS  CLEAR     75  39  27 NW15      29.99S
LAKEVIEW       CLEAR     77  34  20 W10       29.99S
HERMISTON      MOCLDY    77  49  37 W9        29.85F
PENDLETON      MOCLDY    74  45  35 NW3       29.88F
JOHN DAY       CLEAR     76  40  27 W7        29.94S
MEACHAM        MOCLDY    64  42  44 CALM      29.98S
LA GRANDE      MOCLDY    72  41  33 NW10      29.90S
BAKER CITY     PTCLDY    67  45  45 N8        29.92S
BURNS          CLEAR     76  35  22 W3        29.96F
ROME             N/A     83  25  12 CALM      29.91F
ONTARIO        CLEAR     77  49  37 SE3       29.87F
$$


USA.gov is the U.S. government's official web portal to all federal, state and local government web resources and services.